This demonstration page uses our WeatherBlox Daily Observations layout. Learn more.

Left ArrowRight Arrow

39.95238, -75.16362

Hourly Observations for August 19, 2022

Temp ( °F °C ) Dew Point ( °F °C ) Humidity (%) Winds ( mph kmh ) Pressure ( in mb ) Visibility ( mi km ) Precip ( " mm )
12:54 am 00:54 Clear 75 23.9 63 17.2 66 66 WSW 8 13 30.00 1016 10 16 0.00 0.00
1:54 am 01:54 Clear 73 22.8 64 17.8 73 73 WSW 6 9 30.01 1016 10 16 0.00 0.00
2:54 am 02:54 Clear 73 22.8 65 18.3 76 76 SW 5 7 30.01 1016 10 16 0.00 0.00
3:54 am 03:54 Clear 73 22.8 65 18.3 76 76 W 6 9 30.02 1017 10 16 0.00 0.00
4:54 am 04:54 Clear 71 21.7 64 17.8 79 79 WSW 6 9 30.03 1017 10 16 0.00 0.00
5:54 am 05:54 Clear 71 21.7 64 17.8 79 79 WSW 3 6 30.04 1017 10 16 0.00 0.00
6:54 am 06:54 Sunny 71 21.7 65 18.3 81 81 W 5 7 30.05 1018 10 16 0.00 0.00
7:54 am 07:54 Sunny 73 22.8 65 18.3 76 76 SW 3 6 30.07 1018 10 16 0.00 0.00
8:54 am 08:54 Mostly Sunny 78 25.6 63 17.2 60 60 WSW 3 6 30.08 1019 10 16 0.00 0.00
9:54 am 09:54 Mostly Sunny 80 26.7 63 17.2 56 56 VRB 5 7 30.08 1019 10 16 0.00 0.00
10:54 am 10:54 Mostly Sunny 83 28.3 63 17.2 51 51 S 7 11 30.09 1019 10 16 0.00 0.00
11:54 am 11:54 Mostly Sunny 87 30.6 58 14.4 37 37 WSW 8 13 30.08 1019 10 16 0.00 0.00
12:54 pm 12:54 Partly Cloudy 88 31.1 57 13.9 35 35 VRB 7 11 30.07 1018 10 16 0.00 0.00
1:54 pm 13:54 Partly Cloudy 90 32.2 59 15 35 35 WSW 10 17 30.07 1018 10 16 0.00 0.00
2:54 pm 14:54 Partly Cloudy 90 32.2 59 15 35 35 W 14 22 30.06 1018 10 16 0.00 0.00
3:54 pm 15:54 Partly Cloudy 90 32.2 59 15 35 35 VRB 7 11 30.05 1018 10 16 0.00 0.00
4:54 pm 16:54 Mostly Cloudy 90 32.2 60 15.6 37 37 WSW 10 17 30.04 1017 10 16 0.00 0.00
5:54 pm 17:54 Mostly Cloudy 90 32.2 60 15.6 37 37 WSW 13 20 30.05 1018 10 16 0.00 0.00
6:54 pm 18:54 Mostly Cloudy 87 30.6 64 17.8 46 46 S 10 17 30.05 1018 10 16 0.00 0.00
7:54 pm 19:54 Mostly Cloudy 84 28.9 63 17.2 49 49 S 10 17 30.06 1018 10 16 0.00 0.00
8:54 pm 20:54 Mostly Cloudy 82 27.8 63 17.2 53 53 S 9 15 30.08 1019 10 16 0.00 0.00
9:54 pm 21:54 Mostly Cloudy 80 26.7 65 18.3 60 60 SW 6 9 30.10 1019 10 16 0.00 0.00
10:54 pm 22:54 Mostly Cloudy 79 26.1 67 19.4 67 67 SSW 8 13 30.11 1020 10 16 0.00 0.00
11:54 pm 23:54 Mostly Cloudy 78 25.6 67 19.4 69 69 SSW 6 9 30.12 1020 10 16 0.00 0.00

Powered by AerisWeather